IRIDIUM 59 [+] (25275 NORAD) Tracking and Keplerian Element Data

This shows tracking and keplerian element data for the satellite.

Feedback or suggestion? Click here.




ElementValue
Catalog25275
NameIRIDIUM 59 [+]
Epoch Orbit6286
Epoch Day198.90312722
Epoch Year2018
RAAN122.0078
Inclination86.398
Eccentricity0.0002148
Argument of Perigee85.4751
Mean Anonmoly274.669
Mean Motion14.34213842
Decay Rate1.53E-06
L11 25275U 98019D 18198.90312722 .00000153 00000-0 47689-4 0 9998
L22 25275 86.3980 122.0078 0002148 85.4751 274.6690 14.34213842 62860

Live tracking and technical data element details for IRIDIUM 59 [+] (NORAD 25275). IRIDIUM 59 [+] can be tracked NOW for your location showing map with azimuth and elevation plus other details from your city location.

Track the satellite on the map from your city or location and see movement details for azimuth, elevation, latitude, longitude, range, height, and movement on the map or in text.







IsCatalogInMostPopularTable: catalog: 25275, numindb: 31
Update: records affected: 1



GetName: 25275 IRIDIUM 59 [+]

Hit Count: updated at: Fri, 20 Jul 2018 06:52:11 GMT